• In Netherlands
  • List of Countries
  • For 7 days
  • Water Temperature
  • Satellite Maps
  • Weather Map
  • Weather Widgets
  • user-avatar
    Login

    Hourly Weather Artashat

    Today, 29 April, Saturday

    Time Temperature Precipitation Wind Pressure Humidity
    00:00 +7°C° 0.2 mm 1 mps 603 mmHg 70%
    01:00 +6°C° 0.1 mm 1 mps 602 mmHg 72%
    02:00 +6°C° 0.1 mm 1 mps 602 mmHg 73%
    03:00 +6°C° 0 mm 1 mps 601 mmHg 79%
    04:00 +6°C° 0.3 mm 1 mps 601 mmHg 78%
    05:00 +6°C° 0.3 mm 1 mps 601 mmHg 77%
    06:00 +6°C° 0.3 mm 1 mps 602 mmHg 77%
    07:00 +8°C° 0.2 mm 1 mps 602 mmHg 69%
    08:00 +10°C° 0.2 mm 1 mps 603 mmHg 62%
    09:00 +12°C° 0 mm 1 mps 603 mmHg 55%
    10:00 +13°C° 0.3 mm 2 mps 604 mmHg 51%
    11:00 +14°C° 0.3 mm 2 mps 604 mmHg 47%
    12:00 +15°C° 0.3 mm 2 mps 604 mmHg 43%
    13:00 +15°C° 0.3 mm 2 mps 604 mmHg 41%
    14:00 +16°C° 0.3 mm 2 mps 604 mmHg 38%
    15:00 +16°C° 0.3 mm 2 mps 604 mmHg 36%
    16:00 +15°C° 0.2 mm 1 mps 603 mmHg 37%
    17:00 +15°C° 0.2 mm 1 mps 603 mmHg 39%
    18:00 +14°C° 0.2 mm 1 mps 603 mmHg 41%
    19:00 +13°C° 0.1 mm 1 mps 603 mmHg 46%
    20:00 +11°C° 0.1 mm 1 mps 602 mmHg 50%
    21:00 +10°C° 0.1 mm 1 mps 602 mmHg 55%
    22:00 +9°C° 0.1 mm 1 mps 602 mmHg 56%
    23:00 +8°C° 0.1 mm 1 mps 601 mmHg 58%

    Tomorrow, 30 April, Sunday

    Time Temperature Precipitation Wind Pressure Humidity
    00:00 +8°C° 0.1 mm 1 mps 601 mmHg 59%
    01:00 +7°C° 0 mm 1 mps 601 mmHg 60%
    02:00 +7°C° 0 mm 1 mps 601 mmHg 62%
    03:00 +6°C° 0 mm 1 mps 600 mmHg 63%
    04:00 +6°C° 0 mm 1 mps 601 mmHg 63%
    05:00 +6°C° 0 mm 1 mps 601 mmHg 62%
    06:00 +7°C° 0 mm 1 mps 601 mmHg 62%
    07:00 +9°C° 0 mm 1 mps 602 mmHg 55%
    08:00 +11°C° 0 mm 1 mps 603 mmHg 47%
    09:00 +13°C° 0 mm 1 mps 604 mmHg 39%
    10:00 +14°C° 0 mm 1 mps 604 mmHg 36%
    11:00 +15°C° 0 mm 1 mps 604 mmHg 33%
    12:00 +16°C° 0 mm 2 mps 605 mmHg 30%
    13:00 +17°C° 0.1 mm 2 mps 604 mmHg 29%
    14:00 +17°C° 0.1 mm 2 mps 604 mmHg 28%
    15:00 +17°C° 0.1 mm 2 mps 604 mmHg 27%
    16:00 +17°C° 0 mm 2 mps 604 mmHg 29%
    17:00 +16°C° 0 mm 2 mps 604 mmHg 31%
    18:00 +15°C° 0 mm 2 mps 603 mmHg 33%
    19:00 +13°C° 0 mm 2 mps 603 mmHg 37%
    20:00 +12°C° 0 mm 2 mps 603 mmHg 40%
    21:00 +10°C° 0 mm 1 mps 602 mmHg 44%
    22:00 +10°C° 0 mm 1 mps 602 mmHg 45%
    23:00 +9°C° 0 mm 1 mps 602 mmHg 46%

    Day after tomorrow, 1 May, Monday

    Time Temperature Precipitation Wind Pressure Humidity
    00:00 +8°C° 0 mm 1 mps 602 mmHg 47%
    01:00 +8°C° 0 mm 1 mps 602 mmHg 49%
    02:00 +7°C° 0 mm 1 mps 601 mmHg 51%
    03:00 +7°C° 0 mm 1 mps 601 mmHg 53%
    04:00 +7°C° 0 mm 1 mps 601 mmHg 53%
    05:00 +7°C° 0 mm 1 mps 601 mmHg 53%
    06:00 +7°C° 0 mm 1 mps 602 mmHg 53%
    07:00 +10°C° 0 mm 1 mps 603 mmHg 46%
    08:00 +12°C° 0 mm 1 mps 604 mmHg 39%
    09:00 +14°C° 0 mm 1 mps 605 mmHg 33%
    10:00 +15°C° 0 mm 1 mps 605 mmHg 30%
    11:00 +17°C° 0 mm 2 mps 605 mmHg 27%
    12:00 +18°C° 0 mm 2 mps 606 mmHg 24%
    13:00 +18°C° 0 mm 2 mps 605 mmHg 22%
    14:00 +19°C° 0 mm 2 mps 605 mmHg 21%
    15:00 +19°C° 0 mm 2 mps 605 mmHg 20%
    16:00 +18°C° 0 mm 2 mps 605 mmHg 23%
    17:00 +17°C° 0 mm 2 mps 604 mmHg 27%
    18:00 +16°C° 0 mm 2 mps 604 mmHg 30%
    19:00 +15°C° 0 mm 2 mps 603 mmHg 33%
    20:00 +13°C° 0 mm 2 mps 603 mmHg 36%
    21:00 +12°C° 0 mm 2 mps 603 mmHg 39%
    22:00 +11°C° 0 mm 1 mps 602 mmHg 41%
    23:00 +10°C° 0 mm 1 mps 602 mmHg 43%

    2 May, Tuesday

    Time Temperature Precipitation Wind Pressure Humidity
    00:00 +10°C° 0 mm 1 mps 602 mmHg 45%
    01:00 +10°C° 0 mm 1 mps 602 mmHg 46%
    02:00 +9°C° 0 mm 1 mps 601 mmHg 47%
    03:00 +9°C° 0 mm 1 mps 601 mmHg 48%
    04:00 +9°C° 0 mm 1 mps 601 mmHg 49%
    05:00 +9°C° 0 mm 1 mps 601 mmHg 50%
    06:00 +9°C° 0 mm 1 mps 601 mmHg 50%
    07:00 +11°C° 0 mm 1 mps 602 mmHg 46%
    08:00 +13°C° 0 mm 2 mps 603 mmHg 42%
    09:00 +14°C° 0 mm 2 mps 603 mmHg 38%
    10:00 +15°C° 0.1 mm 2 mps 604 mmHg 38%
    11:00 +16°C° 0.1 mm 2 mps 604 mmHg 38%
    12:00 +17°C° 0.1 mm 3 mps 604 mmHg 38%
    13:00 +17°C° 0.4 mm 2 mps 604 mmHg 38%
    14:00 +17°C° 0.4 mm 2 mps 604 mmHg 37%
    15:00 +19°C° 0.4 mm 1 mps 603 mmHg 37%
    16:00 +18°C° 0.3 mm 1 mps 603 mmHg 40%
    17:00 +16°C° 0.3 mm 1 mps 603 mmHg 42%
    18:00 +16°C° 0.3 mm 1 mps 602 mmHg 45%
    19:00 +14°C° 0.3 mm 1 mps 602 mmHg 49%
    20:00 +13°C° 0.3 mm 1 mps 602 mmHg 54%
    21:00 +12°C° 0.3 mm 1 mps 602 mmHg 59%
    22:00 +11°C° 0.3 mm 1 mps 602 mmHg 62%
    23:00 +11°C° 0.3 mm 1 mps 602 mmHg 65%

    3 May, Wednesday

    Time Temperature Precipitation Wind Pressure Humidity
    00:00 +10°C° 0.3 mm 1 mps 602 mmHg 68%
    01:00 +10°C° 0.2 mm 1 mps 601 mmHg 70%
    02:00 +10°C° 0.2 mm 1 mps 601 mmHg 71%
    03:00 +9°C° 0.2 mm 1 mps 601 mmHg 73%
    04:00 +9°C° 0.2 mm 1 mps 601 mmHg 73%
    05:00 +9°C° 0.2 mm 1 mps 601 mmHg 73%
    06:00 +9°C° 0.2 mm 1 mps 601 mmHg 74%
    07:00 +10°C° 0.1 mm 1 mps 601 mmHg 67%
    08:00 +12°C° 0.1 mm 1 mps 601 mmHg 61%
    09:00 +13°C° 0.1 mm 1 mps 602 mmHg 55%
    10:00 +14°C° 0.1 mm 1 mps 602 mmHg 49%
    11:00 +15°C° 0.1 mm 2 mps 602 mmHg 44%
    12:00 +17°C° 0.1 mm 2 mps 603 mmHg 38%
    13:00 +17°C° 0.2 mm 2 mps 602 mmHg 37%
    14:00 +17°C° 0.2 mm 2 mps 602 mmHg 36%
    15:00 +17°C° 0.2 mm 2 mps 602 mmHg 35%
    16:00 +16°C° 0.1 mm 2 mps 602 mmHg 37%
    17:00 +16°C° 0.1 mm 2 mps 601 mmHg 39%
    18:00 +15°C° 0.1 mm 2 mps 601 mmHg 41%
    19:00 +14°C° 0.1 mm 2 mps 601 mmHg 45%
    20:00 +12°C° 0.1 mm 2 mps 601 mmHg 50%
    21:00 +10°C° 0.1 mm 2 mps 600 mmHg 55%
    22:00 +9°C° 0 mm 2 mps 600 mmHg 56%
    23:00 +9°C° 0 mm 2 mps 600 mmHg 57%

    4 May, Thursday

    Time Temperature Precipitation Wind Pressure Humidity
    00:00 +9°C° 0 mm 1 mps 600 mmHg 59%
    01:00 +9°C° 0 mm 1 mps 599 mmHg 59%
    02:00 +8°C° 0 mm 1 mps 599 mmHg 60%
    03:00 +8°C° 0 mm 1 mps 599 mmHg 61%
    04:00 +8°C° 0 mm 1 mps 599 mmHg 60%
    05:00 +8°C° 0 mm 1 mps 599 mmHg 60%
    06:00 +8°C° 0 mm 1 mps 599 mmHg 60%
    07:00 +10°C° 0 mm 1 mps 600 mmHg 53%
    08:00 +12°C° 0 mm 1 mps 601 mmHg 46%
    09:00 +14°C° 0 mm 1 mps 602 mmHg 39%
    10:00 +15°C° 0 mm 1 mps 602 mmHg 36%
    11:00 +16°C° 0 mm 2 mps 602 mmHg 33%
    12:00 +17°C° 0 mm 2 mps 602 mmHg 30%
    13:00 +17°C° 0 mm 2 mps 602 mmHg 29%
    14:00 +18°C° 0 mm 2 mps 602 mmHg 28%
    15:00 +18°C° 0 mm 2 mps 602 mmHg 27%
    16:00 +17°C° 0 mm 2 mps 602 mmHg 30%
    17:00 +17°C° 0 mm 2 mps 602 mmHg 33%
    18:00 +16°C° 0 mm 2 mps 602 mmHg 35%
    19:00 +14°C° 0 mm 2 mps 602 mmHg 40%
    20:00 +13°C° 0 mm 2 mps 601 mmHg 44%
    21:00 +10°C° 0 mm 2 mps 601 mmHg 49%
    22:00 +9°C° 0 mm 2 mps 601 mmHg 51%
    23:00 +9°C° 0 mm 2 mps 601 mmHg 53%
    Show more